Regional Weather Roundup
Issued by NWS Grand Forks, ND

Home | Current Version | Previous Version | Text Only | Print | Product List | Glossary On
Versions: 1 2 3 4 5 6 7 8 9 10 11 12 13 14 15 16 17 18 19 20 21 22 23 24 25 26 27 28 29 30 31 32 33 34 35 36 37 38 39 40 41 42 43 44 45 46 47 48 49 50
000
ASUS43 KFGF 191610
RWRFGF
PRAIRIE TO PINES  WEATHER ROUNDUP
NATIONAL WEATHER SERVICE EASTERN NORTH DAKOTA/GRAND FORKS ND
1100 AM CDT SUN APR 19 2015

 **SATELLITE DATA USED TO AUGMENT SKY COVER AT AUTOMATED STATIONS**
 *****  WEATHER ACROSS EASTERN NORTH DAKOTA  *****

CITY           SKY/WX    TMP DP  RH WIND       PRES   REMARKS
GRAND FORKS    LGT RAIN  45  43  93 NW17G23   29.70F
GRAND FRKS AFB LGT RAIN  45  41  88 NW18G25   29.70F
GRAND FRKS NWS   N/A     43 N/A N/A NW12        N/A
DEVILS LAKE    CLOUDY    43  37  81 NW16G22   29.77S
FARGO          CLOUDY    46  41  82 NW25G35   29.70F
WAHPETON ARPT  CLOUDY    45  37  76 NW23G31   29.72R
$$

 ***** WEATHER ACROSS CENTRAL AND WESTERN NORTH DAKOTA  *****

CITY           SKY/WX    TMP DP  RH WIND       PRES   REMARKS
BISMARCK       PTSUNNY   47  36  65 NW25G37   29.90S
MINOT          CLOUDY    44  36  73 W26G32    29.87F
JAMESTOWN      PTSUNNY   46  38  73 NW21      29.77F
MINOT AFB      DRIZZLE   40  40 100 NW20      29.87R
GARRISON         N/A     43  37  79 NW29G39   29.89S
WILLISTON      CLOUDY    42  33  70 NW22G31   30.03R
DICKINSON      CLOUDY    40  33  76 NW25      29.97S
HETTINGER      CLOUDY    42  31  64 NW29G39   30.00S
$$

 *****  OTHER AIRPORT OBSERVATIONS IN OUR AREA  *****

CITY           SKY/WX    TMP DP  RH WIND       PRES   REMARKS
WALHALLA       RAIN      43  43 100 NW16G22   29.73R
GRAFTON AIRPOR LGT RAIN  45  45 100 NW18      29.71S
VALLEY CITY AR LGT RAIN  45  45 100 NW24      29.75F
CANDO          LGT RAIN  39  37  93 NW18G26   29.79S
CAVALIER APRT  LGT RAIN  45  41  87 NW13G21   29.71S
GWINNER        CLOUDY    48  43  81 NW25G32   29.77R
SHEYENNE NWR     N/A     47  41  80 NW13      29.95S
ROLLA          LGT RAIN  37  37 100 NW21      29.80S
 ***** THE ABOVE OBSERVATIONS ARE NON NWS ARE NOT QUALITY
       CONTROLLED AND MAY MIS-REPORT RAIN FOR SNOW...
$$

  *****  WEATHER ACROSS NORTHERN MINNESOTA  *****

CITY           SKY/WX    TMP DP  RH WIND       PRES   REMARKS
FLAG ISLAND    CLOUDY    39  37  93 E8        29.65F
WARROAD        DRIZZLE   41  37  87 E5        29.66S
ROSEAU         CLOUDY    45  39  81 CALM      29.65F
HALLOCK        LGT RAIN  45  43  93 NW18G24   29.67F
THF RVR FALLS  CLOUDY    45  43  93 S6        29.66F
BAUDETTE       CLOUDY    42  39  89 SE9       29.65F
WASKISH        CLOUDY    43  39  87 CALM      29.65F
CROOKSTON      RAIN      45  45 100 NW22      29.68F
STEPHEN NDAWN    N/A     45  45 100 NW18        N/A
GREENBUSH NDAW   N/A     45  45 100 NW10        N/A
$$
  *****  WEATHER ACROSS CENTRAL AND WEST MINNESOTA  *****

CITY           SKY/WX    TMP DP  RH WIND       PRES   REMARKS
FOSSTON        CLOUDY    45  43  93 CALM      29.65S
BEMIDJI        CLOUDY    41  39  93 SE3       29.63F
PARK RAPIDS    CLOUDY    45  40  82 W5        29.64R
ELBOW LAKE     CLOUDY    45  45  99 NW22      29.68S FOG
WADENA         CLOUDY    45  45 100 NW9       29.64S
DETROIT LAKES  CLOUDY    45  45 100 W7        29.66F FOG
MOORHEAD       DRIZZLE   45  41  87 NW28G35   29.70S
FERGUS FALLS   CLOUDY    45  45 100 NW24G30   29.70R
MORRIS MN      CLOUDY    48  45  87 NW25      29.69R
STAPLES        CLOUDY    45  45 100 NW9       29.64R FOG
$$
  *****  WEATHER ELSEWHERE ACROSS MINNESOTA  *****

CITY           SKY/WX    TMP DP  RH WIND       PRES   REMARKS
DULUTH         LGT RAIN  40  38  93 S13       29.67F FOG
INTRNTL FALLS  CLOUDY    41  39  93 E7        29.65F FOG
ELY            RAIN      39  37  93 SE7       29.68F
CLOQUET        CLOUDY    39  37  93 E8        29.67F FOG
WHEATON        CLOUDY    45  39  81 W18G30    29.75R
BRAINERD       CLOUDY    47  46  97 S3        29.62S FOG
HIBBING        LGT RAIN  41  39  93 S7        29.65F FOG
ALEXANDRIA     CLOUDY    49  45  86 NW17G24   29.67R
SAINT CLOUD    CLOUDY    51  51 100 S9        29.62F FOG
MINNEAPOLIS    CLOUDY    54  49  83 SE6       29.66F
$$

  *****  WEATHER ACROSS SOUTH DAKOTA  *****

CITY           SKY/WX    TMP DP  RH WIND       PRES   REMARKS
SIOUX FALLS    CLOUDY    49  44  83 NW22G32   29.77R
BROOKINGS      CLOUDY    46  43  87 NW23G33   29.78R
WATERTOWN      CLOUDY    45  41  86 NW25G33   29.77R
HURON          CLOUDY    50  38  63 NW29G35   29.84S
SISSETON         N/A     47  43  86 NW24G32   29.74R
ABERDEEN       MOSUNNY   52  39  61 NW25G33   29.83S
MITCHELL       CLOUDY    50  38  63 NW29G37   29.85S
PIERRE         MOSUNNY   50  34  54 NW30G40   29.93F
MOBRIDGE       MOSUNNY   49  36  61 NW23G32   29.88S
RAPID CITY     SUNNY     46  25  43 NW40G47   30.05F
$$

  *****  SOME WEATHER IN NEARBY STATES *****

CITY           SKY/WX    TMP DP  RH WIND       PRES   REMARKS
GLASGOW MT     MOSUNNY   45  27  49 NW26G33   30.16F
GREAT FALLS MT CLOUDY    43  28  55 CALM      30.24F
CHEYENNE WY    CLOUDY    34  22  61 N18G24    30.12F WCI  23
SCOTTSBLUFF NE MOSUNNY   46  32  58 N24G39    30.11F
OMAHA NE       LGT RAIN  53  51  93 NW14G24   29.73S
DES MOINES IA  LGT RAIN  62  58  86 E3        29.67F
DAVENPORT IA   PTSUNNY   66  46  48 SE8       29.69F
CHICAGO IL     PTSUNNY   64  36  35 E13       29.74F
EAU CLAIRE WI  CLOUDY    52  37  56 SE13      29.71F
LA CROSSE WI   LGT RAIN  57  42  57 SE14      29.72F
$$

  *****  SOME NATIONAL WEATHER *****

CITY           SKY/WX    TMP DP  RH WIND       PRES   REMARKS
LA GUARDIA NY  PTSUNNY   57  31  37 NE9       30.25F
RALEIGH NC     CLOUDY    73  63  70 E16G23    29.99F
ATLANTA GA     LGT RAIN  70  64  83 S14G24    29.83S
NEW ORLEANS LA PTSUNNY   81  63  54 W10       29.82R
OKLAHOMA CITY  CLOUDY    62  48  60 NE8       29.76S
ALBUQUERQUE NM MOSUNNY   53  30  41 CALM      30.08F
SALT LAKE CITY MOSUNNY   57  31  37 S6        30.08S
LOS ANGELES CA MOSUNNY   61  55  81 W7        29.98S
BOISE ID       SUNNY     53  27  36 CALM      30.15S
SEATTLE WA     PTSUNNY   54  42  64 NE10      30.20F
$$

*** WEATHER ACROSS MANITOBA...SASKATCHEWAN AND ONTARIO ***
                ***ONTARIO***

CITY           SKY/WX    TMP DP  RH WIND       PRES   REMARKS
GERALDTON      PTSUNNY   43  25  49 SE13      29.98F
THUNDER BAY    LGT RAIN  36  34  93 E16       29.87F
SIOUX LOOKOUT  LGT RAIN  36  34  93 E6        29.77F FOG
TORONTO        PTSUNNY   45  27  49 E23       30.18F
BIG TROUT LK   SUNNY     43  27  52 SE14G25   29.93F
PICKLE LAKE    CLOUDY    39  27  60 SE14G21   29.85S
DRYDEN         LGT RAIN  37  36  93 E10       29.70F
KENORA         LGT RAIN  39  39 100 SE9       29.66F
$$
                *** MANITOBA***

CITY           SKY/WX    TMP DP  RH WIND       PRES   REMARKS
BRANDON        CLOUDY    43  37  81 NW20      29.83R
DAUPHIN        CLOUDY    41  34  75 N22G30    29.85F
ISLAND LAKE    CLOUDY    37  36  93 NE6       29.76S
PILOT MOUND      N/A     34  34 100 NW17G24     N/A  WCI  23
THE PAS        FLURRIES  32  27  80 N15G26    30.00R WCI  22
THOMPSON       LGT SNOW  25  21  86 N14G22    30.02R WCI  13
WINNIPEG       LGT RAIN  43  39  87 NW23G30   29.71R
LYNN LAKE      CLOUDY    25  23  93 NE14G20   30.18R WCI  13
CHURCHILL      MOSUNNY   21  18  86 NE9       30.32S WCI  11
GILLAM         SNOW      23  19  86 NE17G25   30.05F VSB 1/2 WCI   9
$$
                ***SASKATCHEWAN***

CITY           SKY/WX    TMP DP  RH WIND       PRES   REMARKS
ESTEVAN        CLOUDY    41  32  70 NW26G35   29.98R
KINDERSLEY     MOSUNNY   45  30  57 NW9       30.22F
LLOYDMINSTER   MOSUNNY   45  32  61 NW6       30.22S
PRINCE ALBERT  PTSUNNY   41  30  65 N18       30.15S
REGINA         CLOUDY    39  32  75 N20G35    30.08R
YORKTON        CLOUDY    39  34  81 NW20G35   29.95S
N. BATTLEFORD  SUNNY     43  34  70 W7        30.23S
LA RONGE       PTSUNNY   36  28  75 N8        30.21S
SASKATOON      MOSUNNY   43  30  61 N16G23    30.18F
SWIFT CURRENT  SUNNY     41  30  65 NW15G21   30.18S
$$
NOTE: THESE ARE AUTOMATED STATIONS WITH LIMITED QUALITY CONTROL
      "FAIR" INDICATES FEW OR NO CLOUDS BELOW 12,000 FEET WITH NO
      SIGNIFICANT WEATHER AND/OR OBSTRUCTIONS TO VISIBILITY.
      SKY/WX - SKY CONDITION AND SIGNIFICANT WEATHER.
      TMP - AIR TEMPERATURE.    DP   - DEWPOINT TEMPERATURE.
      RH  - RELATIVE HUMIDITY.  PRES - PRESSURE.
      HX  - HEAT INDEX.         WCI  - WIND CHILL INDEX.
$


USA.gov is the U.S. government's official web portal to all federal, state and local government web resources and services.